Weather Service Report


458 
ASUS45 KBOI 151210
RWRID 

IDAHO REGIONAL WEATHER ROUNDUP
NATIONAL WEATHER SERVICE BOISE ID
600 AM MDT MON OCT 15 2018

NOTE: "FAIR" INDICATES FEW OR NO CLOUDS BELOW 12000 FEET
WITH NO SIGNIFICANT WEATHER AND/OR OBSTRUCTIONS TO VISIBILITY

IDZ012-014-151300-
SOUTHWEST IDAHO

  
CITY           SKY/WX    TMP DP  RH WIND       PRES   REMARKS
BOISE          CLEAR     32  22  66 SE5       30.43R WCI  27          
CALDWELL       CLEAR     28  24  85 CALM      30.45S                  
MOUNTAIN HOME  CLEAR     28  21  75 E3        30.43R                  
$$

IDZ016-017-151300-
SOUTHCENTRAL IDAHO

  
CITY           SKY/WX    TMP DP  RH WIND       PRES   REMARKS
BURLEY         CLEAR     29  18  63 S6        30.41R WCI  23          
JEROME         CLEAR     28  21  75 E5        30.42R WCI  23          
TWIN FALLS     CLEAR     28  19  69 S12       30.41R WCI  18          
$$

IDZ019>023-151300-
SOUTHEAST IDAHO

  
CITY           SKY/WX    TMP DP  RH WIND       PRES   REMARKS
IDAHO FALLS    CLEAR     23  17  78 SW8       30.42R WCI  14          
POCATELLO      CLEAR     23  19  85 E3        30.43R                  
REXBURG        CLEAR     19  13  77 NE3       30.42R                  
$$

IDZ006-010-011-018-031-032-151300-
CENTRAL IDAHO MOUNTAINS

  
CITY           SKY/WX    TMP DP  RH WIND       PRES   REMARKS
MCCALL         CLEAR     24  18  77 CALM      30.39S                  
HAILEY         CLEAR     27  19  74 NW6       30.41R WCI  20          
STANLEY          N/A     15   8  73 CALM      30.42S                  
SALMON         CLEAR     21  18  88 CALM      30.47R                  
CHALLIS        CLEAR     23  16  74 CALM      30.42S                  
$$

IDZ002-004-006-007-026-151300-
NORTHERN IDAHO

  
CITY           SKY/WX    TMP DP  RH WIND       PRES   REMARKS
LEWISTON       CLEAR     36  25  64 CALM      30.46R                  
LOWELL           N/A     29  28  96 CALM      30.55R                  
COEUR D'ALENE  CLEAR     36  31  82 S8        30.42R WCI  30          
MULLAN PASS    CLEAR     29  15  56 NW5       30.36R WCI  24          
$$
  

Return to Home page


Western Regional Climate Center, wrcc@dri.edu